{"data":{"norad_id":67407,"intl_designator":"2026-005D","name":"STARLINK-36510","alt_names":[],"object_type":"PAYLOAD","status":"ACTIVE","operator":null,"country":"US","launch_date":"2026-01-12","launch_site_code":"AFETR","launch_vehicle":null,"mission":null,"orbit_class":"UNKNOWN","rcs_meters":null,"size_class":null,"mass_kg":null,"dimensions":null,"purposes":["comms"],"wikipedia_slug":null,"has_3d_model":false,"image_url":null,"decayed_at":null,"tle_current":{"epoch":"2026-09-19T22:30:37.163232Z","epoch_age_seconds":123959,"freshness":"FRESH","line1":"1 67407U 26005D   26262.93793013  .00009045  00000+0  33771-3 0  9991","line2":"2 67407  43.0010 221.0273 0000573 284.0200  76.0588 15.27588971 38404","mean_motion":15.27588971,"eccentricity":5.73e-5,"inclination_deg":43.001,"raan_deg":221.0273,"arg_perigee_deg":284.02,"mean_anomaly_deg":76.0588,"bstar":0.00033771,"rev_number":3840,"period_min":94.266195117744,"perigee_km":482.62908934572,"apogee_km":483.41537819391,"semimajor_km":6861.1592337698,"source":"CELESTRAK","updated_at":"2026-09-20T09:00:43.518981Z"}}}